Regional Weather Roundup
Issued by NWS Midland/Odessa, TX

Skip options and go directly to product.
Home | Oldest Version | Next Version | Current Version | All | Text Only | Save Text | Print | Product List | Glossary On

Skip product version selection by date and time.   
156
ASUS44 KMAF 240302
RWRMAF
MIDLAND AREA WEATHER ROUNDUP
NATIONAL WEATHER SERVICE MIDLAND TX
1000 PM CDT WED JUL 23 2014

...IN SOUTHWEST TEXAS AND SOUTHEAST NEW MEXICO...

CITY           SKY/WX    TMP DP  RH WIND       PRES   REMARKS
ALPINE         CLEAR     82  51  34 E9        30.28R
ANDREWS        FAIR      86  54  33 SE6       30.16R
ARTESIA        CLEAR     90  48  24 E8        30.15R
BIG SPRING     CLEAR     92  55  28 E9        30.14R
CARLSBAD       CLEAR     88  44  21 SE6       30.12R
DRYDEN           N/A     92  60  34 SE6       30.06R
FORT STOCKTON  CLEAR     89  54  30 SE10      30.13R
GUAD PASS      CLEAR     78  46  32 E14       30.31R
HOBBS          PTCLDY    86  52  30 E9        30.19R
MARFA          CLEAR     77  52  41 E9        30.27S
MIDLAND AIRPK  CLEAR     88  61  40 E5        30.14R
MIDLAND INTL   PTCLDY    90  58  33 E12       30.13R
ODESSA         PTCLDY    90  53  28 E10       30.14R
PECOS          CLEAR     87  52  29 E6        30.07R
PRESIDIO       FAIR      92  48  22 MISG      30.06R
SEMINOLE       CLEAR     84  49  29 E6        30.18R
SNYDER         CLEAR     87  59  38 E6        30.13R
WINK           LGT RAIN  81  65  58 SE22G29   30.13R
$$
...OTHER STATIONS IN TEXAS...

CITY           SKY/WX    TMP DP  RH WIND       PRES   REMARKS
ABILENE        CLOUDY    89  65  44 E9        30.10R
AMARILLO       CLEAR     79  63  57 SE7       30.21R
AUSTIN         MOCLDY    85  70  60 E6        30.02R
BROWNSVILLE    PTCLDY    81  74  79 SE7       29.99R
CORPUS CHRISTI MOCLDY    82  74  76 SE8       29.97R
DALLAS FTW     CLOUDY    79  67  66 E12       30.08R
DEL RIO        MOCLDY    94  61  33 E6        29.98R
EL PASO        PTCLDY    88  46  23 E9        30.14R
HOUSTON INT    CLOUDY    84  72  67 NE5       30.02R
LUBBOCK        CLEAR     80  58  46 E6        30.18S
SAN ANGELO     MOCLDY    85  64  49 E6        30.08R
SAN ANTONIO    MOCLDY    91  66  43 NE10      30.02R
WACO           CLOUDY    85  68  56 E9        30.06R
WICHITA FALLS  NOT AVBL
$$
...OTHER LOCATIONS IN NEW MEXICO...

CITY           SKY/WX    TMP DP  RH WIND       PRES   REMARKS
ALAMAGORDO     PTCLDY    84  41  21 SE7       30.18R
ALBUQUERQUE    PTCLDY    80  57  45 N9        30.28R
CANNON AFB     CLEAR     77  60  55 E6        30.25R
CLOVIS         NOT AVBL
HOLLOMAN AFB   PTCLDY    86  45  23 E8        30.16R
ROSWELL        CLEAR     85  51  31 E7        30.16R
RUIDOSO        PTCLDY    72  43  35 MISG      30.44R
SANTA FE       PTCLDY    69  54  58 E6        30.38R
TRUTH OR CONSE LGT RAIN  81  54  39 N5        30.21S
TUCUMCARI      CLEAR     82  53  36 SW6       30.21R
$$

USA.gov is the U.S. government's official web portal to all federal, state and local government web resources and services.